Regional Weather Roundup
Issued by NWS Newport/Morehead, NC

Current Version | Previous Version | Text Only | Print | Product List | Glossary Off
Versions: 1 2 3 4 5 6 7 8 9 10 11 12 13 14 15 16 17 18 19 20 21 22 23 24 25 26 27 28 29
000 ASUS42 KMHX 200210 RWRMHX WEATHER ROUNDUP FOR EASTERN NORTH CAROLINA NATIONAL WEATHER SERVICE NEWPORT/MOREHEAD CITY NC 900 PM EST FRI JAN 19 2018 NOTE: "FAIR" INDICATES FEW OR NO CLOUDS BELOW 12,000 FEET WITH NO SIGNIFICANT WEATHER AND/OR OBSTRUCTIONS TO VISIBILITY NCZ015>017-031-032-045>047-102-103-200300- NORTH COAST CITY SKY/WX TMP DP RH WIND PRES REMARKS EDENTON FAIR 47 22 36 W5 30.15S ELIZABETH CITY FAIR 39 27 62 SW8 30.14R KITTY HAWK FAIR 39 24 55 CALM 30.13R MANTEO FAIR 37 30 77 CALM 30.15R $$ NCZ045>047-081-094-103-104-200300- CENTRAL COAST CITY SKY/WX TMP DP RH WIND PRES REMARKS FRISCO FAIR 50 44 80 W7 30.16R $$ NCZ095-097-098-100-101-200300- SOUTHERN COAST CITY SKY/WX TMP DP RH WIND PRES REMARKS BEAUFORT FAIR 46 40 79 SW8 30.19R CEDAR ISLAND NOT AVBL JACKSONVILLE FAIR 44 30 57 SW7 30.19R PINEY ISLAND NOT AVBL WILMINGTON FAIR 43 34 70 SW7 30.21R $$ NCZ011>013-027>030-043-044-078>080-089-090>093-098-200300- COASTAL PLAIN CITY SKY/WX TMP DP RH WIND PRES REMARKS AHOSKIE FAIR 31 21 66 CALM 30.15S CLINTON FAIR 35 26 70 CALM 30.19R ELIZABETHTOWN NOT AVBL GOLDSBORO FAIR 36 26 65 CALM 30.16R GREENVILLE FAIR 32 25 74 CALM 30.18R HAVELOCK NOT AVBL KENANSVILLE FAIR 32 25 74 SW3 30.18S KINSTON FAIR 34 27 75 CALM 30.18R NEW BERN FAIR 38 30 73 W5 30.18R RICHLANDS FAIR 36 27 69 SW7 30.19R ROCKY MOUNT NOT AVBL WASHINGTON FAIR 36 25 62 CALM 30.17R WHITEVILLE FAIR 39 29 69 CALM 30.19S $$ AMZ130-135-150-152-154-156-158-170-250-252-270-ANZ085-086-088-633-658-670-200300- MARINE OBSERVATIONS STATION/POSITION TIME TEMP WIND PRES WAVE SWELL AIR SEA DIR/SP/G HT/PER HT/PER (UTC) (F) (DEG/KT/KT) (MB) (FT/S) (FT/S) CHESAPEAKE LIGHT NOT AVBL 64 E VA BEACH NOT AVBL DUCK NOT AVBL 2 E DUCK NOT AVBL OREGON INLET NOT AVBL 13E OREGON INLT NOT AVBL HATTERAS CG NOT AVBL DIAMOND BUOY NOT AVBL CAPE LOOKOUT NOT AVBL BEAUFORT LAB NOT AVBL 30 SE NEW RVR IN NOT AVBL 30 SE NEW RVR IN NOT AVBL 27 SE WRIGHTSVLE NOT AVBL 5 SE WRIGHTSVLE NOT AVBL 225 S CAPE HAT NOT AVBL 41 SE CHARLESTON NOT AVBL $$

USA.gov is the U.S. government's official web portal to all federal, state and local government web resources and services.